Wind_Speed
8 8 8 9 9 10 10 10 10 10 9 8 7 7 8 8 8 7 7 7 7 8 8 7 6 6 5 5 4 4 4 4 5 5 5 5 5 5 5 5 5 5 5 4 3 3 3 3 3
9 9 9 9 9 10 11 11 11 10 9 9 8 9 9 8 8 7 7 7 8 9 9 8 7 7 7 6 5 4 3 2 3 3 3 3 3 3 3 3 3 3 3 2 2 2 1 2 2
10 10 10 10 9 10 12 12 11 10 9 9 9 10 10 10 8 8 8 8 9 9 10 9 9 8 8 7 6 5 3 2 2 2 2 2 1 1 0 1 1 1 1 1 1 1 1 1 2
10 10 10 10 11 12 13 12 12 12 11 11 11 10 10 11 11 10 9 10 10 10 11 11 10 9 9 8 7 6 4 3 2 2 2 2 2 2 2 2 2 2 2 2 2 2 2 3 3
9 10 10 11 12 13 13 13 13 13 12 12 12 11 11 10 11 11 11 11 11 11 11 11 11 11 10 10 8 7 5 4 4 3 3 3 3 3 3 3 3 4 4 4 3 3 3 4 4
9 9 9 10 13 14 14 14 13 13 13 13 12 11 11 11 11 11 11 12 12 12 12 12 12 11 11 11 10 8 7 6 5 4 4 4 5 5 4 4 5 5 5 6 6 5 5 5 6
8 8 9 11 13 15 14 14 14 14 13 13 12 12 12 13 12 12 13 13 13 13 13 13 13 12 12 12 11 9 8 7 6 5 5 5 6 6 6 6 6 6 6 7 7 7 7 6 6
8 8 9 11 12 15 15 15 14 14 14 14 13 13 13 14 13 13 13 13 14 14 14 13 14 13 13 12 11 10 9 7 7 6 6 6 6 7 7 7 7 7 7 8 7 8 9 9 8
8 7 9 11 12 14 15 15 15 15 15 14 14 14 14 14 14 15 15 15 15 15 15 14 14 13 13 12 11 10 10 9 8 7 7 7 8 8 8 8 8 8 8 8 9 9 9 10 9
8 7 9 10 12 13 14 15 15 15 16 16 15 15 14 14 14 15 15 16 17 17 17 16 16 14 14 13 12 11 11 9 9 8 8 8 8 9 9 9 8 9 9 9 9 9 9 10 10
7 7 9 10 11 12 13 14 15 16 17 17 17 15 15 15 15 17 17 17 18 18 18 17 17 16 15 15 14 13 12 11 10 9 9 9 9 10 10 9 9 9 9 9 8 8 9 9 10
8 8 9 10 11 12 13 14 15 17 18 17 16 15 14 14 15 17 18 18 17 18 18 18 18 17 16 16 15 14 12 11 10 9 9 9 9 9 9 9 9 9 8 8 8 8 8 8 9
7 8 9 10 11 12 13 14 15 16 15 15 15 14 14 14 15 17 18 19 19 18 18 19 18 17 16 16 15 14 12 11 10 10 9 8 9 9 9 10 10 9 8 8 8 8 8 8 9
7 8 9 11 12 13 14 14 15 16 14 14 13 13 14 15 16 18 20 19 19 18 18 18 18 18 17 16 15 14 12 11 10 10 9 9 9 8 9 9 9 8 9 9 9 8 8 8 9
8 9 10 11 12 13 14 15 16 15 14 13 12 12 12 13 14 16 19 21 20 20 19 18 18 18 17 15 14 12 12 11 10 9 9 8 8 8 8 8 8 8 9 9 9 8 8 8 8
8 9 10 13 14 14 15 15 16 15 14 13 12 10 10 12 14 16 20 22 22 22 20 19 18 17 17 15 13 12 11 10 9 8 7 7 7 7 7 7 7 7 7 7 7 8 8 8 9
9 9 10 13 14 14 15 15 15 15 14 13 12 9 8 10 14 17 20 22 22 22 21 19 18 17 16 15 13 12 11 9 9 7 6 6 6 5 5 5 6 6 6 7 7 8 8 9 9
8 9 11 13 14 15 15 15 15 15 14 13 11 9 6 7 12 17 20 21 21 21 20 19 18 17 16 15 14 12 11 9 8 6 5 4 4 4 4 4 5 6 6 7 7 8 8 9 10
9 10 11 13 14 14 15 15 15 15 13 12 11 8 2 3 10 14 18 19 19 19 19 19 18 17 16 15 13 11 10 8 6 4 3 3 3 3 3 4 5 5 6 7 7 8 9 10 11
10 10 11 13 13 13 13 14 14 12 12 12 10 7 2 2 7 12 16 17 18 19 18 16 17 16 15 14 12 11 9 7 6 4 3 2 2 2 3 3 5 5 6 7 8 9 10 11 12
10 10 11 12 12 12 12 13 13 12 11 11 9 6 3 2 5 10 13 15 17 18 17 16 16 15 14 13 12 10 9 8 6 5 4 3 2 2 3 4 5 6 8 8 9 10 10 11 12
10 11 12 12 12 12 12 12 13 12 11 10 9 7 4 1 5 9 11 13 14 16 16 16 16 15 13 13 11 10 9 8 6 5 4 3 2 2 3 4 5 7 8 9 10 10 11 12 13
11 12 12 12 11 11 12 10 12 11 9 9 8 7 4 1 2 5 8 11 13 15 16 16 16 14 13 12 11 10 9 8 7 5 4 4 3 3 3 4 6 8 9 10 10 11 12 13 13
12 12 11 11 10 10 10 10 10 10 8 8 7 5 3 1 1 2 5 9 12 14 15 16 15 14 13 12 11 10 9 8 7 6 5 4 4 4 4 5 7 9 9 10 11 12 13 14 15
12 12 10 10 9 10 10 9 9 9 7 6 5 4 2 1 1 3 5 8 11 13 14 15 14 13 13 12 11 10 9 8 7 6 5 5 5 5 6 7 8 9 9 11 12 13 14 15 16
13 12 10 9 9 10 11 9 9 8 6 5 4 3 1 2 2 3 5 7 9 11 13 14 13 12 12 11 10 10 10 9 8 7 7 7 7 7 8 9 9 10 11 13 14 15 15 16 17
14 13 12 11 10 9 10 10 10 8 6 5 4 3 2 2 3 4 4 6 8 10 11 12 12 12 11 11 11 10 10 10 9 9 9 9 9 9 10 11 11 13 14 15 16 16 17 18 19
16 14 13 11 10 9 10 11 11 10 8 6 5 4 3 3 4 5 5 5 7 9 10 11 11 11 11 12 12 11 11 11 11 11 11 12 12 12 12 13 14 15 16 17 18 19 19 20 21
16 15 14 13 12 10 9 11 13 11 9 7 6 6 5 4 4 5 5 6 7 8 9 10 11 12 12 12 12 12 12 12 12 13 13 14 15 15 16 16 17 18 19 19 20 20 21 22 23
17 16 15 14 14 13 11 11 13 12 11 9 8 7 7 6 6 6 6 7 8 9 10 11 12 13 13 13 14 14 14 14 15 15 16 17 18 18 19 19 20 20 21 22 22 22 23 23 24
Wind_Direction
327 323 320 319 321 322 316 314 313 314 305 292 281 270 259 260 243 230 215 199 193 196 190 188 193 202 208 207 197 179 157 140 127 120 116 112 110 109 107 104 104 106 105 101 100 106 111 115 118
323 322 319 316 319 315 310 311 310 310 303 294 279 270 260 259 254 234 214 202 202 205 204 200 203 210 216 219 216 208 189 163 140 128 123 121 117 113 107 110 116 122 120 115 116 117 128 139 139
320 318 316 314 310 302 303 308 309 311 305 293 282 269 260 254 252 238 224 215 212 212 213 209 211 214 219 226 226 220 208 200 180 157 155 153 151 153 141 150 160 167 177 180 176 180 195 193 184
318 317 316 313 306 303 304 306 306 305 302 296 285 273 264 254 249 242 233 227 222 220 218 219 217 217 223 227 229 224 217 217 222 218 210 216 235 250 260 263 255 247 245 249 250 245 236 226 217
317 317 315 311 305 305 307 307 306 305 298 294 289 275 266 258 250 244 238 233 228 225 222 226 219 221 226 227 228 228 226 228 233 237 242 253 263 265 269 275 271 264 262 259 259 260 250 241 230
318 316 311 300 302 304 304 305 305 304 298 294 288 281 271 264 255 246 240 235 230 227 226 225 221 225 228 227 225 229 233 239 240 241 251 264 270 273 277 277 278 274 271 265 264 256 252 247 239
312 309 301 297 299 300 302 304 303 304 302 292 285 277 273 267 257 248 242 236 231 230 230 228 222 225 228 228 225 227 232 238 243 248 262 270 270 273 277 277 277 277 276 270 264 260 255 247 242
310 307 302 298 298 298 302 302 301 300 299 294 284 275 271 263 252 243 237 234 230 229 231 233 225 225 227 229 231 230 231 237 244 253 265 271 272 271 275 276 278 279 279 277 273 268 258 249 243
314 309 298 295 295 297 301 302 301 300 295 292 284 274 269 259 248 240 237 233 229 228 228 228 225 224 225 229 230 232 235 241 248 259 266 272 277 279 282 282 283 283 285 284 278 275 269 257 248
318 308 299 299 298 298 301 301 302 300 296 292 284 275 269 260 248 239 233 228 225 223 224 226 226 224 222 224 229 237 241 244 252 259 266 274 278 281 285 286 286 289 293 291 284 283 279 266 260
319 312 308 307 306 305 304 304 305 303 299 293 288 278 269 258 245 230 224 221 219 219 223 226 227 224 224 226 232 237 242 249 255 262 269 275 279 283 285 287 286 291 297 299 292 287 279 272 266
319 317 315 312 309 308 307 307 307 307 304 298 288 277 264 251 239 229 223 218 215 218 220 222 221 225 227 228 233 238 242 251 253 262 270 277 282 285 287 288 288 292 299 304 299 290 285 281 275
319 318 316 313 311 314 314 313 313 311 307 304 292 275 260 249 238 227 220 218 217 219 220 221 222 225 226 227 232 239 244 246 253 261 267 275 282 286 291 292 292 295 297 302 305 299 291 288 277
320 320 320 319 318 320 321 318 318 317 310 305 297 280 262 247 238 226 218 215 215 217 220 223 223 224 227 229 231 235 242 247 255 264 266 275 282 288 293 293 291 297 300 299 298 300 297 290 282
325 328 329 326 324 323 322 322 323 324 319 312 301 288 266 248 236 224 215 212 212 216 219 222 223 224 227 229 230 234 238 244 253 258 266 275 280 284 293 293 295 298 302 299 297 300 301 295 288
328 335 335 328 326 326 326 326 323 325 323 321 312 295 266 246 227 217 211 208 209 213 217 219 220 223 222 223 227 232 235 243 253 257 265 273 279 289 299 301 302 303 308 311 309 305 305 299 291
330 331 320 319 321 323 325 325 324 326 327 326 318 304 271 239 222 213 207 206 207 211 214 218 218 220 221 222 226 231 236 246 252 252 261 268 280 293 303 306 307 305 308 315 315 309 305 301 296
296 306 310 314 316 322 323 324 328 327 330 331 326 316 287 233 212 207 205 205 207 210 214 217 218 218 218 222 227 233 235 240 242 245 249 255 269 293 310 318 319 315 319 323 318 313 312 309 307
299 307 308 311 314 318 321 323 328 329 331 337 335 332 328 209 200 199 198 201 205 210 211 212 215 212 216 221 224 225 222 225 227 229 226 235 268 295 314 327 331 328 326 323 317 313 313 311 309
299 306 308 313 315 318 322 323 327 331 331 338 343 346 338 208 193 197 201 202 206 208 208 212 211 210 214 214 215 210 206 208 214 214 214 231 265 295 319 326 325 330 328 326 322 319 316 313 310
294 298 301 309 316 319 324 327 328 329 329 335 340 345 347 208 196 193 196 200 204 205 206 205 206 205 201 202 201 196 197 203 208 206 213 229 258 291 314 320 323 326 327 325 323 319 316 313 311
288 294 300 307 317 322 326 331 330 329 329 333 338 343 336 256 200 196 197 197 200 200 199 198 199 199 201 193 190 193 200 203 203 205 214 228 250 278 307 317 320 322 325 325 322 320 318 316 314
286 296 300 303 311 316 321 327 328 329 328 332 334 337 333 296 202 198 200 199 195 193 195 197 197 199 197 194 192 196 199 198 199 205 216 232 248 269 294 308 315 319 325 325 323 319 317 318 316
287 296 301 305 310 319 315 322 328 332 332 335 339 340 333 286 215 188 185 188 191 193 195 196 197 196 194 192 192 197 200 200 204 210 223 237 250 267 284 301 312 318 321 323 323 321 318 317 316
283 293 308 315 316 308 307 314 317 323 326 335 346 349 333 258 212 197 184 183 188 192 194 197 197 195 193 197 199 203 205 207 209 217 228 241 258 275 285 295 306 313 317 318 320 319 319 317 316
277 282 284 285 291 297 303 307 308 309 314 316 325 331 318 251 226 193 187 188 187 188 193 198 196 194 197 199 204 207 211 215 220 229 240 252 264 274 282 290 299 306 310 311 314 316 315 315 315
270 271 275 281 288 297 294 299 301 300 302 303 306 303 300 254 226 208 200 195 197 197 199 200 200 199 203 207 210 213 219 224 231 241 250 259 266 273 280 287 294 301 304 306 309 312 312 313 314
263 269 272 274 278 286 291 297 293 292 292 289 288 284 277 254 230 218 210 205 204 202 204 206 206 210 213 216 220 225 230 236 243 252 258 262 266 271 281 286 291 296 300 304 306 308 309 310 312
261 263 267 268 269 275 280 281 280 281 281 280 276 273 265 250 241 231 225 221 218 218 219 219 221 224 225 227 230 235 240 247 253 257 262 264 267 273 279 285 290 294 298 301 304 306 307 308 309
259 260 263 267 273 276 276 275 272 271 270 271 271 266 263 256 248 240 233 231 232 232 231 231 232 233 234 237 241 246 252 256 260 263 265 268 271 275 280 285 289 292 295 298 300 303 304 306 308
Height
5913 5912 5911 5911 5912 5912 5911 5910 5909 5908 5908 5907 5907 5907 5906 5907 5907 5909 5907 5906 5906 5907 5907 5907 5908 5909 5910 5910 5910 5910 5910 5910 5910 5910 5910 5910 5910 5911 5911 5911 5911 5911 5911 5911 5911 5911 5911 5911 5910
5911 5911 5911 5911 5911 5911 5909 5908 5908 5907 5906 5905 5905 5905 5904 5904 5904 5904 5904 5904 5905 5906 5906 5906 5907 5908 5909 5909 5910 5910 5910 5910 5910 5910 5910 5910 5910 5910 5911 5911 5911 5911 5911 5911 5911 5911 5910 5910 5910
5910 5909 5910 5909 5909 5909 5908 5907 5906 5905 5904 5903 5902 5902 5902 5902 5902 5902 5902 5903 5903 5904 5904 5905 5906 5907 5908 5909 5909 5909 5909 5909 5909 5909 5909 5909 5910 5910 5910 5910 5910 5910 5910 5910 5910 5910 5910 5910 5910
5908 5908 5908 5908 5907 5906 5905 5904 5903 5903 5902 5901 5900 5899 5899 5900 5900 5900 5900 5901 5901 5902 5903 5904 5904 5905 5906 5907 5908 5908 5908 5909 5909 5909 5909 5909 5909 5909 5910 5910 5909 5909 5909 5909 5909 5909 5909 5909 5909
5906 5906 5907 5906 5904 5903 5902 5902 5901 5900 5899 5899 5898 5897 5896 5897 5897 5897 5898 5898 5899 5899 5900 5902 5902 5903 5905 5905 5906 5907 5907 5907 5908 5908 5908 5908 5908 5908 5908 5908 5908 5908 5908 5908 5908 5908 5908 5908 5908
5905 5905 5905 5904 5902 5901 5900 5899 5898 5898 5897 5896 5895 5894 5894 5894 5894 5894 5895 5895 5896 5897 5898 5899 5900 5901 5902 5903 5904 5905 5906 5906 5906 5907 5907 5907 5907 5907 5907 5907 5907 5907 5907 5906 5906 5906 5906 5906 5906
5904 5903 5903 5902 5900 5899 5898 5896 5896 5895 5894 5893 5892 5891 5891 5890 5890 5890 5891 5892 5893 5894 5896 5896 5898 5899 5900 5901 5902 5903 5904 5904 5905 5905 5905 5905 5905 5905 5905 5905 5905 5905 5905 5904 5904 5904 5904 5904 5904
5901 5901 5900 5899 5898 5896 5895 5893 5892 5892 5891 5890 5888 5888 5887 5887 5886 5886 5888 5889 5890 5892 5893 5894 5895 5896 5898 5899 5900 5901 5902 5903 5903 5903 5903 5903 5903 5903 5903 5903 5903 5902 5902 5902 5902 5902 5902 5902 5902
5898 5900 5898 5897 5895 5894 5892 5890 5889 5888 5887 5886 5884 5884 5883 5882 5882 5883 5884 5885 5887 5888 5890 5892 5893 5894 5896 5897 5898 5899 5900 5900 5901 5901 5901 5901 5901 5901 5901 5900 5900 5900 5900 5900 5899 5899 5899 5899 5900
5897 5897 5896 5894 5893 5891 5889 5888 5886 5885 5883 5881 5880 5879 5878 5878 5878 5878 5880 5881 5883 5885 5887 5889 5890 5892 5894 5895 5896 5897 5898 5898 5899 5899 5899 5899 5899 5899 5898 5898 5898 5897 5897 5897 5897 5897 5896 5897 5897
5895 5895 5893 5891 5890 5888 5887 5885 5883 5881 5879 5878 5876 5875 5874 5874 5874 5874 5875 5877 5878 5881 5884 5886 5888 5889 5891 5892 5894 5895 5896 5896 5897 5897 5897 5897 5896 5896 5896 5896 5895 5895 5895 5894 5894 5894 5894 5894 5894
5893 5892 5891 5889 5888 5886 5884 5882 5880 5878 5875 5873 5871 5870 5870 5869 5870 5870 5872 5873 5875 5878 5881 5883 5885 5887 5888 5890 5891 5892 5893 5894 5894 5894 5895 5894 5894 5894 5894 5893 5893 5892 5892 5892 5892 5891 5891 5891 5891
5891 5890 5889 5887 5885 5884 5882 5879 5877 5875 5872 5869 5867 5866 5865 5865 5866 5867 5868 5870 5873 5876 5878 5880 5882 5884 5886 5887 5889 5890 5891 5892 5892 5892 5892 5893 5892 5892 5891 5891 5890 5890 5890 5889 5889 5889 5889 5889 5889
5890 5889 5887 5885 5884 5881 5879 5877 5875 5872 5868 5866 5863 5862 5861 5860 5861 5862 5865 5867 5870 5873 5875 5878 5880 5882 5883 5885 5887 5888 5889 5890 5890 5890 5891 5891 5890 5890 5889 5889 5888 5888 5888 5887 5887 5887 5887 5887 5887
5888 5888 5886 5884 5882 5880 5878 5875 5872 5869 5866 5863 5860 5858 5856 5856 5857 5858 5861 5864 5867 5870 5873 5875 5877 5879 5881 5883 5884 5886 5887 5888 5888 5888 5888 5888 5888 5888 5887 5887 5886 5886 5886 5885 5885 5885 5884 5884 5884
5887 5886 5886 5883 5880 5878 5877 5874 5870 5866 5863 5860 5857 5854 5853 5852 5853 5855 5857 5860 5864 5867 5870 5872 5874 5876 5878 5880 5882 5883 5885 5885 5886 5886 5886 5887 5887 5886 5886 5885 5884 5884 5884 5883 5883 5883 5882 5882 5882
5886 5887 5885 5883 5879 5876 5874 5871 5868 5864 5861 5858 5854 5852 5849 5848 5849 5852 5854 5857 5861 5864 5867 5869 5871 5873 5876 5878 5880 5882 5883 5884 5884 5884 5885 5885 5885 5884 5884 5883 5883 5882 5882 5882 5881 5881 5880 5880 5880
5887 5885 5883 5881 5877 5875 5872 5869 5866 5862 5859 5855 5852 5849 5847 5846 5847 5849 5852 5856 5859 5861 5864 5867 5869 5872 5874 5876 5878 5880 5881 5882 5882 5883 5883 5883 5883 5883 5882 5882 5881 5881 5881 5880 5880 5879 5878 5878 5877
5883 5882 5881 5879 5876 5873 5870 5867 5864 5860 5857 5854 5851 5848 5846 5845 5846 5847 5850 5854 5857 5859 5862 5865 5867 5870 5872 5874 5876 5878 5879 5880 5881 5881 5881 5882 5882 5881 5881 5881 5880 5880 5880 5879 5878 5877 5877 5876 5875
5880 5879 5878 5876 5874 5871 5868 5865 5862 5859 5857 5854 5851 5848 5846 5845 5846 5847 5850 5852 5855 5857 5860 5863 5866 5868 5870 5872 5874 5876 5878 5879 5880 5880 5880 5880 5880 5880 5880 5880 5880 5879 5879 5878 5877 5876 5874 5874 5873
5878 5877 5876 5874 5872 5869 5867 5864 5861 5858 5856 5853 5851 5848 5847 5846 5846 5847 5849 5851 5854 5856 5859 5862 5864 5866 5869 5871 5873 5875 5876 5878 5878 5879 5879 5879 5879 5879 5879 5878 5878 5878 5877 5876 5875 5874 5873 5871 5870
5877 5875 5873 5872 5870 5868 5866 5864 5861 5857 5855 5853 5850 5848 5847 5846 5847 5847 5848 5850 5852 5855 5858 5860 5863 5866 5868 5870 5872 5874 5875 5876 5877 5877 5877 5878 5878 5878 5878 5877 5877 5876 5875 5874 5873 5872 5871 5869 5868
5874 5873 5871 5869 5868 5866 5864 5863 5861 5857 5854 5852 5850 5848 5847 5846 5846 5847 5847 5849 5851 5854 5856 5860 5862 5865 5867 5870 5871 5873 5874 5874 5875 5876 5876 5877 5877 5877 5876 5876 5875 5874 5873 5872 5871 5870 5868 5867 5865
5871 5870 5869 5868 5867 5866 5863 5862 5860 5857 5854 5852 5850 5848 5846 5846 5846 5846 5847 5848 5850 5853 5856 5859 5861 5864 5866 5868 5870 5871 5872 5873 5874 5874 5875 5875 5875 5875 5875 5874 5874 5873 5871 5870 5869 5867 5865 5864 5862
5868 5869 5869 5868 5867 5866 5862 5860 5859 5856 5854 5852 5850 5848 5847 5847 5847 5847 5847 5848 5850 5853 5855 5858 5861 5863 5865 5866 5868 5870 5871 5871 5872 5872 5873 5874 5873 5873 5873 5872 5871 5870 5869 5868 5866 5864 5862 5860 5858
5866 5866 5867 5867 5866 5864 5860 5858 5857 5855 5853 5851 5850 5849 5848 5848 5848 5848 5848 5849 5851 5853 5855 5857 5860 5862 5863 5865 5866 5868 5869 5869 5870 5871 5871 5872 5871 5871 5870 5870 5869 5867 5866 5864 5863 5861 5859 5857 5855
5862 5862 5863 5862 5861 5861 5860 5857 5855 5853 5852 5851 5850 5849 5848 5848 5849 5849 5849 5850 5851 5853 5855 5857 5859 5861 5862 5864 5865 5866 5867 5868 5868 5869 5869 5869 5869 5868 5868 5867 5865 5864 5862 5861 5859 5857 5855 5853 5850
5859 5859 5859 5859 5859 5859 5858 5856 5854 5852 5851 5850 5849 5849 5849 5849 5849 5849 5850 5851 5852 5853 5854 5856 5858 5860 5861 5862 5863 5864 5865 5865 5866 5866 5866 5866 5866 5865 5864 5863 5862 5860 5859 5857 5855 5852 5850 5848 5846
5854 5855 5854 5855 5855 5855 5855 5856 5851 5850 5849 5849 5849 5848 5848 5848 5849 5849 5850 5851 5852 5853 5854 5855 5857 5858 5859 5860 5861 5862 5862 5863 5863 5863 5863 5863 5862 5861 5860 5859 5858 5856 5854 5852 5850 5847 5845 5843 5840
5849 5850 5850 5851 5851 5850 5851 5854 5848 5847 5846 5847 5847 5847 5847 5847 5847 5848 5849 5850 5851 5852 5853 5854 5855 5856 5857 5858 5858 5859 5859 5859 5859 5859 5859 5858 5858 5857 5856 5854 5853 5851 5849 5847 5844 5842 5839 5837 5834